カタログに戻る

STARLINK-5012

運用中通信VLEO
NORAD 53918·PAYLOAD·🇺🇸 United States

打ち上げ Sep 24, 2022 から Cape Canaveral Space Force Station

Loading…

次のパス (今後24時間)

TLE

最新Source: CelesTrak SupGP

元期: Sep 14, 2026, 20:57 UTC

1 53918C 22119AJ  26257.87340278 -.00013125  00000+0 -82307-3 0  2575
2 53918  53.1585 184.1185 0001524  93.2237   9.8136 15.08842737    14

AllMySatでSTARLINK-5012をリアルタイム追跡

Download on the App Store